Location: Unspecified
(46.0725°N, 13.7344°E)
Time: 15:17:30
(UTC+01:00)

Cosmos 2058 - Pass Details

Date: 24 October 2019
Orbit: 563 x 583 km, 82.5° (Epoch: 13 November)

Event Time Altitude Azimuth Distance (km) Brightness Sun altitude
Rises 19:37:14 0° 351° (N) 2,817 6.6 -16.8°
Reaches altitude 10° 19:39:27 10° 352° (N) 1,911 5.7 -17.2°
Maximum altitude 19:43:41 84° 82° (E) 591 2.8 -17.9°
Drops below altitude 10° 19:47:51 10° 170° (S) 1,887 5.4 -18.6°
Sets 19:50:01 0° 171° (S) 2,778 6.3 -19.0°
